KB1ZFK Weather Reports


time (UTC)temp
F
wind
direction
speed
knots
gust
knots
rain 1hr
in
rain 24hr
in
rain mn
in
humidity
%
barometer
mb
20260507040415 48 302 1.7 1.7 0.00 0.00 0.00 96 1006.8
20260507035911 48 285 0.9 1.7 0.00 0.25 0.25 96 1006.8
20260507035408 49 303 0.9 1.7 0.00 0.25 0.25 97 1006.5
20260507034905 49 126 2.6 2.6 0.00 0.25 0.25 97 1006.7
20260507034401 50 334 0.9 0.9 0.00 0.25 0.25 97 1006.6
20260507033859 50 317 0.9 1.7 0.00 0.25 0.25 97 1006.4
20260507033358 50 308 1.7 2.6 0.00 0.25 0.25 97 1006.3
20260507032854 50 317 0.9 0.9 0.00 0.25 0.25 97 1006.4
20260507032351 50 294 1.7 1.7 0.00 0.25 0.25 97 1006.3
20260507031847 51 326 0.9 0.9 0.00 0.25 0.25 97 1006.1
20260507031344 51 317 0.9 0.9 0.00 0.25 0.25 97 1006.5
20260507030840 51 326 1.7 1.7 0.05 0.25 0.25 97 1006.4
20260507030338 52 320 2.6 2.6 0.12 0.25 0.25 97 1006.2
20260507025834 52 293 0.9 1.7 0.17 0.25 0.25 97 1006.2
20260507025332 52 307 0.9 0.9 0.19 0.23 0.23 97 1006.4
20260507024830 53 314 0.0 0.9 0.14 0.22 0.22 97 1006.5
20260507024327 53 288 1.7 1.7 0.00 0.20 0.20 97 1006.6
20260507023823 53 249 1.7 1.7 0.00 0.20 0.20 97 1006.3
20260507023319 53 332 0.9 1.7 0.05 0.20 0.20 97 1006.3
20260507022817 53 329 0.9 0.9 0.12 0.20 0.20 97 1006.1
20260507022313 54 309 0.9 0.9 0.07 0.19 0.19 97 1005.9
20260507021809 54 325 1.7 2.6 0.00 0.18 0.18 97 1006.0
20260507021305 55 304 0.9 1.7 0.00 0.18 0.18 97 1005.9
20260507020803 55 333 0.9 0.9 0.00 0.18 0.18 97 1005.8
20260507020259 55 310 0.9 0.9 0.00 0.18 0.18 97 1005.9
20260507015757 56 287 1.7 2.6 0.05 0.18 0.18 97 1005.7
20260507015254 56 323 0.0 0.9 0.05 0.18 0.18 96 1005.5
20260507014751 56 315 0.0 0.9 0.00 0.17 0.17 96 1005.5
20260507014247 57 328 1.7 1.7 0.00 0.17 0.17 96 1005.5
20260507013744 58 319 0.9 0.9 0.12 0.17 0.17 96 1005.2
20260507013241 58 312 0.9 0.9 0.31 0.17 0.17 96 1005.3
20260507012739 58 335 0.0 0.0 0.24 0.15 0.15 96 1005.2
20260507012234 58 337 0.0 0.9 0.12 0.13 0.13 96 1005.2
20260507011732 58 331 0.0 0.0 0.00 0.11 0.11 96 1005.0
20260507011228 58 337 0.0 0.0 0.00 0.11 0.11 96 1005.0
20260507010728 58 332 0.0 0.0 0.00 0.11 0.11 96 1005.0
20260507010224 58 337 0.0 0.0 0.00 0.11 0.11 96 1005.0
20260507005722 58 341 0.0 0.0 0.00 0.11 0.11 96 1005.1
20260507005218 58 334 0.0 0.0 0.00 0.11 0.11 96 1005.0
20260507004714 58 335 0.0 0.0 0.00 0.11 0.11 96 1005.1
20260507004212 58 332 0.0 0.0 0.00 0.11 0.11 96 1005.0
20260507003708 58 334 0.9 0.9 0.00 0.11 0.11 96 1005.0
20260507003203 58 22 1.7 2.6 0.00 0.11 0.11 96 1004.8
20260507002700 58 33 1.7 1.7 0.00 0.11 0.11 96 1004.7
20260507002156 58 335 0.0 0.0 0.00 0.11 0.11 96 1004.8
20260507001653 58 340 0.0 0.0 0.00 0.11 0.11 96 1004.7
20260507001150 58 333 0.9 0.9 0.00 0.11 0.11 96 1004.7
20260507000646 58 336 0.0 0.9 0.00 0.11 0.11 96 1004.8
20260507000142 58 336 0.0 0.0 0.00 0.11 0.11 96 1004.7
20260506235639 58 335 0.0 0.0 0.00 0.11 0.11 96 1004.7
20260506235140 58 343 0.0 0.0 0.00 0.11 0.11 96 1004.7
20260506234637 58 334 0.0 0.0 0.00 0.11 0.11 96 1004.6
20260506234134 58 332 0.9 0.9 0.00 0.11 0.11 96 1004.5
20260506233631 58 335 0.0 0.0 0.00 0.11 0.11 96 1004.4
20260506233128 58 331 0.0 0.9 0.00 0.11 0.11 95 1004.6
20260506232624 58 337 0.0 0.9 0.00 0.11 0.11 95 1004.4
20260506232120 58 333 0.9 0.9 0.00 0.11 0.11 95 1004.7
20260506231617 58 335 0.9 0.9 0.00 0.11 0.11 95 1004.6
20260506231115 58 331 0.9 1.7 0.00 0.11 0.11 95 1004.7
20260506230612 58 356 0.0 0.9 0.00 0.11 0.11 95 1004.4
20260506230109 58 337 0.9 0.9 0.00 0.11 0.11 95 1004.5
20260506225605 58 343 0.0 0.9 0.00 0.11 0.11 95 1004.9
20260506225102 58 164 1.7 2.6 0.00 0.11 0.11 95 1004.8
20260506224559 58 325 0.9 1.7 0.00 0.11 0.11 95 1004.7
20260506224055 58 334 0.0 0.0 0.00 0.11 0.11 95 1004.6
20260506223551 58 335 0.0 0.9 0.00 0.11 0.11 95 1004.8
20260506223048 58 330 0.9 1.7 0.00 0.11 0.11 95 1004.8
20260506222545 58 302 0.9 1.7 0.00 0.11 0.11 95 1004.8
20260506222041 58 333 0.0 0.9 0.00 0.11 0.11 95 1004.8
20260506221539 59 341 0.0 0.0 0.00 0.11 0.11 95 1005.0
20260506221037 59 356 0.9 1.7 0.00 0.11 0.11 95 1004.9
20260506220532 59 317 0.0 0.0 0.00 0.11 0.11 95 1004.9
20260506220028 59 332 0.0 0.0 0.00 0.11 0.11 95 1004.9
20260506215525 59 10 0.0 0.9 0.00 0.11 0.11 95 1005.0
20260506215020 59 327 0.9 0.9 0.00 0.11 0.11 95 1005.0
20260506214518 59 339 0.0 0.0 0.00 0.11 0.11 95 1005.0
20260506214015 59 330 0.9 0.9 0.00 0.11 0.11 95 1005.0
20260506213513 59 336 1.7 1.7 0.00 0.11 0.11 95 1004.9
20260506213010 59 326 0.0 0.9 0.00 0.11 0.11 95 1005.0
20260506212506 59 345 0.9 0.9 0.07 0.11 0.11 95 1005.0
20260506212001 59 338 0.9 1.7 0.07 0.11 0.11 95 1005.2
20260506211457 59 338 0.9 0.9 0.07 0.11 0.11 95 1005.2
20260506210955 59 326 0.9 0.9 0.00 0.10 0.10 95 1005.3
20260506210451 59 314 1.7 1.7 0.00 0.10 0.10 95 1005.2
20260506205948 59 356 0.9 0.9 0.00 0.10 0.10 95 1005.0
20260506205444 59 119 3.5 5.2 0.00 0.10 0.10 95 1005.2
20260506204940 59 215 1.7 1.7 0.00 0.10 0.10 95 1005.3
20260506204438 60 321 1.7 1.7 0.00 0.10 0.10 95 1005.4
20260506203935 60 345 0.9 1.7 0.07 0.10 0.10 95 1005.1
20260506203433 60 342 0.9 0.9 0.07 0.10 0.10 95 1005.3
20260506202929 60 26 1.7 1.7 0.07 0.10 0.10 95 1005.4
20260506202427 60 352 4.3 6.1 0.05 0.09 0.09 94 1005.6
20260506201923 60 342 0.9 0.9 0.05 0.09 0.09 94 1005.4
20260506201421 60 318 1.7 1.7 0.00 0.08 0.08 94 1005.6
20260506200917 60 268 0.9 0.9 0.07 0.08 0.08 94 1005.6
20260506200413 60 347 0.9 1.7 0.07 0.08 0.08 94 1005.6
20260506195910 60 335 0.0 0.9 0.00 0.07 0.07 94 1005.4
20260506195407 60 29 0.9 0.9 0.05 0.07 0.07 94 1005.7
20260506194904 60 28 1.7 1.7 0.05 0.07 0.07 93 1005.9
20260506194401 60 335 0.0 0.0 0.00 0.06 0.06 93 1005.8
20260506193858 60 334 1.7 1.7 0.00 0.06 0.06 93 1005.8
20260506193355 60 319 1.7 1.7 0.00 0.06 0.06 93 1005.9
20260506192851 60 353 0.9 1.7 0.07 0.06 0.06 92 1006.1
20260506192348 60 277 1.7 1.7 0.07 0.06 0.06 92 1006.0
20260506191845 61 41 1.7 1.7 0.00 0.05 0.05 92 1005.7
20260506191341 60 339 0.9 0.9 0.00 0.05 0.05 92 1005.7
20260506190838 61 329 0.9 0.9 0.00 0.05 0.05 93 1005.7
20260506190334 61 332 0.0 0.0 0.00 0.05 0.05 93 1005.5
20260506185831 60 335 0.0 0.0 0.00 0.05 0.05 93 1005.6
20260506185328 60 344 0.0 0.0 0.00 0.05 0.05 93 1005.9
20260506184825 61 343 0.0 0.0 0.00 0.05 0.05 93 1005.8
20260506184323 61 334 0.0 0.0 0.00 0.05 0.05 94 1006.4
20260506183820 61 334 0.0 0.0 0.00 0.05 0.05 93 1006.2
20260506183315 61 339 0.0 0.9 0.00 0.05 0.05 93 1006.3
20260506182812 60 339 0.0 0.0 0.00 0.05 0.05 93 1006.5
20260506182310 61 342 0.0 0.0 0.05 0.05 0.05 93 1006.6
20260506181808 61 329 0.0 0.0 0.05 0.05 0.05 93 1007.0
20260506181305 61 334 0.9 0.9 0.00 0.04 0.04 93 1006.7
20260506180802 61 334 0.0 0.0 0.07 0.04 0.04 92 1006.7
20260506180257 61 334 0.0 0.0 0.12 0.04 0.04 92 1006.8
20260506175754 61 337 0.9 0.9 0.12 0.03 0.03 92 1007.0
20260506175251 61 330 0.0 0.0 0.07 0.02 0.02 91 1007.0
20260506174749 61 336 0.0 0.0 0.05 0.01 0.01 90 1007.0
20260506174245 62 311 0.9 0.9 0.05 0.01 0.01 89 1007.1
20260506173743 62 341 0.9 0.9 0.00 0.00 0.00 88 1007.1
20260506173240 63 307 0.9 1.7 0.00 0.00 0.00 85 1007.1
20260506172737 64 322 0.9 0.9 0.00 0.00 0.00 81 1007.2
20260506172233 65 338 1.7 1.7 0.00 0.00 0.00 79 1007.0
20260506171731 65 296 0.9 1.7 0.00 0.00 0.00 75 1006.9
20260506171228 66 139 1.7 4.3 0.00 0.00 0.00 73 1007.0
20260506170726 67 125 2.6 4.3 0.00 0.00 0.00 71 1006.9
20260506170222 67 334 1.7 1.7 0.00 0.00 0.00 70 1006.7
20260506165720 68 227 2.6 4.3 0.00 0.00 0.00 69 1007.1
20260506165217 68 240 2.6 4.3 0.00 0.00 0.00 68 1006.8
20260506164714 68 170 2.6 4.3 0.00 0.00 0.00 68 1006.8
20260506164211 68 261 2.6 4.3 0.00 0.00 0.00 67 1007.1
20260506163708 68 187 2.6 4.3 0.00 0.00 0.00 68 1006.7
20260506163203 68 73 1.7 1.7 0.00 0.00 0.00 68 1007.0
20260506162659 68 292 0.9 1.7 0.00 0.00 0.00 69 1006.9
20260506162157 68 321 1.7 2.6 0.00 0.00 0.00 69 1006.8
20260506161654 68 336 1.7 1.7 0.00 0.00 0.00 72 1007.1
20260506161150 68 307 0.9 1.7 0.00 0.00 0.00 72 1007.5
20260506160648 68 356 1.7 1.7 0.00 0.00 0.00 71 1007.2
20260506160145 68 332 0.0 0.9 0.00 0.00 0.00 71 1007.4
20260506155644 68 332 0.9 0.9 0.00 0.00 0.00 71 1007.5
20260506155140 67 3 1.7 1.7 0.00 0.00 0.00 72 1008.0
20260506153242 67 301 1.7 1.7 0.00 0.00 0.00 73 1007.7
20260506152739 67 346 0.0 0.9 0.00 0.00 0.00 72 1008.1
20260506152237 67 35 1.7 1.7 0.00 0.00 0.00 72 1008.1
20260506151736 67 335 0.0 0.9 0.00 0.00 0.00 73 1008.3
20260506151232 68 275 2.6 4.3 0.00 0.00 0.00 72 1008.3
20260506150728 68 352 1.7 1.7 0.00 0.00 0.00 71 1008.2
20260506150225 68 1 1.7 2.6 0.00 0.00 0.00 70 1008.4
20260506145722 68 322 0.9 0.9 0.00 0.00 0.00 70 1008.2
20260506145219 68 229 2.6 2.6 0.00 0.00 0.00 71 1008.0
20260506144716 67 309 2.6 2.6 0.00 0.00 0.00 73 1008.0
20260506144213 67 329 0.9 0.9 0.00 0.00 0.00 73 1008.3
20260506143711 68 115 0.9 1.7 0.00 0.00 0.00 73 1008.0
20260506143208 68 323 0.0 0.9 0.00 0.00 0.00 72 1008.2
20260506142707 68 222 1.7 1.7 0.00 0.00 0.00 72 1008.0
20260506142204 67 292 0.9 2.6 0.00 0.00 0.00 73 1008.1
20260506141702 67 322 0.9 0.9 0.00 0.00 0.00 74 1007.8
20260506141200 66 332 1.7 1.7 0.00 0.00 0.00 75 1008.1
20260506140657 66 2 1.7 1.7 0.00 0.00 0.00 76 1008.0
20260506140154 65 336 0.9 1.7 0.00 0.00 0.00 77 1008.0
20260506135651 64 78 2.6 2.6 0.00 0.00 0.00 78 1007.7
20260506135147 64 324 0.0 0.9 0.00 0.00 0.00 79 1008.1
20260506134644 64 330 0.0 0.0 0.00 0.00 0.00 79 1008.0
20260506134140 65 356 1.7 1.7 0.00 0.00 0.00 78 1008.1
20260506133637 64 340 1.7 1.7 0.00 0.00 0.00 79 1008.3
20260506133134 64 325 1.7 1.7 0.00 0.00 0.00 79 1008.4
20260506132632 64 0 1.7 1.7 0.00 0.00 0.00 79 1008.2
20260506132128 63 337 0.0 0.9 0.00 0.00 0.00 80 1008.3
20260506131626 63 339 0.9 0.9 0.00 0.00 0.00 80 1008.4
20260506131122 63 339 0.0 0.9 0.00 0.00 0.00 81 1008.5
20260506130619 62 355 0.9 0.9 0.00 0.00 0.00 81 1008.5
20260506130116 62 347 0.9 1.7 0.00 0.00 0.00 81 1008.3
20260506125615 62 336 0.0 0.0 0.00 0.00 0.00 81 1008.4
20260506125112 62 29 1.7 1.7 0.00 0.00 0.00 82 1008.4
20260506124609 62 1 0.9 0.9 0.00 0.00 0.00 82 1008.6
20260506124107 62 331 0.0 0.9 0.00 0.00 0.00 82 1008.6
20260506123604 61 336 0.0 0.9 0.00 0.00 0.00 82 1008.6
20260506123103 61 340 0.9 0.9 0.00 0.00 0.00 83 1008.6
20260506122559 60 336 0.0 0.9 0.00 0.00 0.00 83 1008.4
20260506122057 60 329 0.9 1.7 0.00 0.00 0.00 84 1008.4
20260506121555 60 334 0.0 0.0 0.00 0.00 0.00 84 1008.5
20260506121051 60 3 0.0 0.9 0.00 0.00 0.00 84 1008.4
20260506120549 60 334 0.0 0.0 0.00 0.00 0.00 84 1008.6
20260506120046 60 333 0.0 0.0 0.00 0.00 0.00 83 1008.8
20260506115544 60 332 0.0 0.0 0.00 0.00 0.00 84 1008.7
20260506115042 60 336 0.0 0.9 0.00 0.00 0.00 84 1008.9
20260506114539 59 329 0.9 1.7 0.00 0.00 0.00 85 1008.8
20260506114037 59 335 0.0 0.0 0.00 0.00 0.00 86 1008.9
20260506113535 59 348 0.9 0.9 0.00 0.00 0.00 86 1008.9
20260506113032 59 323 0.0 0.9 0.00 0.00 0.00 85 1008.9
20260506112528 59 327 0.9 0.9 0.00 0.00 0.00 85 1009.0
20260506112026 59 334 0.9 0.9 0.00 0.00 0.00 85 1008.9
20260506111524 59 344 0.0 0.9 0.00 0.00 0.00 85 1009.0
20260506111021 59 336 0.0 0.9 0.00 0.00 0.00 85 1009.0
20260506110519 58 332 0.0 0.0 0.00 0.00 0.00 86 1008.7
20260506110016 58 333 0.0 0.0 0.00 0.00 0.00 86 1008.9
20260506105511 58 333 0.9 0.9 0.00 0.00 0.00 86 1009.0
20260506105009 57 333 0.0 0.0 0.00 0.00 0.00 86 1008.7
20260506104507 57 333 0.9 0.9 0.00 0.00 0.00 87 1009.0
20260506104005 57 337 0.9 0.9 0.00 0.00 0.00 87 1009.0
20260506103501 57 335 0.0 0.9 0.00 0.00 0.00 87 1008.9
20260506102958 57 341 0.9 0.9 0.00 0.00 0.00 87 1009.1
20260506102456 57 336 0.9 0.9 0.00 0.00 0.00 86 1008.9
20260506101954 57 333 0.0 0.0 0.00 0.00 0.00 86 1008.7
20260506101450 57 342 0.0 0.0 0.00 0.00 0.00 86 1008.8
20260506100947 57 335 0.9 0.9 0.00 0.00 0.00 86 1008.8
20260506100446 57 345 0.0 0.9 0.00 0.00 0.00 86 1008.9
20260506095943 57 342 0.0 0.0 0.00 0.00 0.00 86 1008.9
20260506095441 56 335 0.0 0.0 0.00 0.00 0.00 86 1008.8
20260506094937 56 324 0.0 0.9 0.00 0.00 0.00 86 1008.9
20260506094436 56 338 0.0 0.0 0.00 0.00 0.00 86 1008.8
20260506093933 56 332 0.0 0.0 0.00 0.00 0.00 86 1008.9
20260506093431 56 337 0.0 0.0 0.00 0.00 0.00 87 1008.8
20260506092929 55 326 0.0 0.0 0.00 0.00 0.00 86 1008.8
20260506092426 55 341 0.0 0.0 0.00 0.00 0.00 86 1008.8
20260506091923 55 337 0.0 0.0 0.00 0.00 0.00 87 1008.6
20260506091421 55 337 0.0 0.0 0.00 0.00 0.00 86 1008.6
20260506090918 56 337 0.0 0.0 0.00 0.00 0.00 86 1008.9
20260506090415 56 337 0.0 0.0 0.00 0.00 0.00 85 1008.5
20260506085912 56 337 0.0 0.0 0.00 0.00 0.00 84 1008.7
20260506085409 56 337 0.0 0.0 0.00 0.00 0.00 84 1008.7
20260506084905 57 337 0.0 0.0 0.00 0.00 0.00 83 1008.9
20260506084402 57 337 0.0 0.9 0.00 0.00 0.00 82 1008.7
20260506083858 58 337 0.0 0.0 0.00 0.00 0.00 80 1008.8
20260506083356 58 337 0.0 0.0 0.00 0.00 0.00 80 1008.8
20260506082853 59 348 0.9 0.9 0.00 0.00 0.00 79 1008.9
20260506082350 60 333 0.0 0.0 0.00 0.00 0.00 77 1008.8
20260506081845 60 335 0.0 0.0 0.00 0.00 0.00 76 1009.0
20260506081344 60 341 0.9 0.9 0.00 0.00 0.00 76 1008.9
20260506080841 60 339 0.0 0.0 0.00 0.00 0.00 76 1008.7
20260506080338 60 333 0.0 0.0 0.00 0.00 0.00 75 1008.8
20260506073322 61 335 0.0 0.0 0.00 0.00 0.00 73 1008.9
20260506072818 61 335 0.9 0.9 0.00 0.00 0.00 73 1008.8
20260506072316 62 330 0.0 0.9 0.00 0.00 0.00 72 1008.6
20260506071814 61 331 0.9 0.9 0.00 0.00 0.00 72 1008.8
20260506071312 61 334 0.0 0.9 0.00 0.00 0.00 72 1008.8
20260506070808 62 332 0.0 0.0 0.00 0.00 0.00 72 1008.8
20260506070305 62 329 0.0 0.9 0.00 0.00 0.00 72 1008.5
20260506062242 62 350 0.9 0.9 0.00 0.00 0.00 69 1008.5
20260506061738 62 355 0.9 0.9 0.00 0.00 0.00 70 1008.6
20260506061236 62 325 0.9 0.9 0.00 0.00 0.00 70 1008.5
20260506060734 62 330 0.0 0.0 0.00 0.00 0.00 70 1008.4
20260506060231 62 330 0.0 0.0 0.00 0.00 0.00 69 1008.4
20260506051203 62 337 0.0 0.9 0.00 0.00 0.00 69 1008.5
20260506050701 63 340 0.9 0.9 0.00 0.00 0.00 68 1008.5
20260506050158 63 339 0.0 0.9 0.00 0.00 0.00 68 1008.7
20260506044649 62 330 0.9 0.9 0.00 0.00 0.00 69 1008.7
20260506044145 63 329 0.0 0.9 0.00 0.00 0.00 69 1008.8
20260506043643 63 337 0.0 0.9 0.00 0.00 0.00 68 1008.7
20260506043141 64 332 0.0 0.9 0.00 0.00 0.00 66 1008.8
20260506042640 64 343 0.0 0.9 0.00 0.00 0.00 65 1009.0
20260506042137 64 353 0.9 1.7 0.00 0.00 0.00 65 1008.6
20260506041635 64 334 0.0 0.0 0.00 0.00 0.00 65 1008.8
20260506041132 65 341 0.9 0.9 0.00 0.00 0.00 65 1008.7